EW4052 Weather Reports


time (UTC)temp
C
wind
direction
speed
KPH
gust
KPH
rain 1hr
cm
rain 24hr
cm
rain mn
cm
humidity
%
barometer
mb
20260510013003 13 298 11.3 22.5 0.00 0.00 0.00 39 1011.5
20260510011601 13 282 14.5 20.9 0.00 0.00 0.00 37 1011.2
20260510010058 14 281 16.1 22.5 0.00 0.00 0.00 35 1011.0
20260510004557 15 273 19.3 25.7 0.00 0.00 0.00 36 1010.7
20260510003055 15 268 20.9 30.6 0.00 0.00 0.00 35 1010.4
20260510001554 16 306 19.3 29.0 0.00 0.00 0.00 34 1010.2
20260510000051 16 296 19.3 33.8 0.00 0.00 0.00 34 1009.9
20260509234548 16 271 16.1 32.2 0.00 0.00 0.00 35 1009.8
20260509233047 16 293 19.3 29.0 0.00 0.00 0.00 33 1009.6
20260509231554 16 288 20.9 30.6 0.00 0.00 0.00 33 1009.4
20260509230044 16 276 22.5 41.8 0.00 0.00 0.00 35 1009.4
20260509224543 17 286 22.5 32.2 0.00 0.00 0.00 36 1009.2
20260509223042 17 269 22.5 37.0 0.00 0.00 0.00 33 1009.0
20260509221539 17 294 22.5 37.0 0.00 0.00 0.00 36 1008.8
20260509220040 17 287 16.1 30.6 0.00 0.00 0.00 33 1008.6
20260509214537 17 260 24.1 33.8 0.00 0.00 0.00 32 1008.5
20260509213036 17 274 25.7 38.6 0.00 0.00 0.00 33 1008.3
20260509211539 18 284 22.5 37.0 0.00 0.00 0.00 34 1008.3
20260509210038 17 279 25.7 35.4 0.00 0.00 0.00 34 1008.1
20260509204531 17 275 20.9 37.0 0.00 0.00 0.00 36 1008.0
20260509203031 17 261 24.1 32.2 0.00 0.00 0.00 35 1007.9
20260509201529 17 269 24.1 38.6 0.00 0.00 0.00 35 1007.8
20260509200026 17 292 22.5 40.2 0.00 0.00 0.00 38 1007.7
20260509194528 17 317 24.1 40.2 0.00 0.00 0.00 38 1007.5
20260509193023 17 281 22.5 38.6 0.00 0.00 0.00 37 1007.5
20260509191523 17 247 20.9 35.4 0.00 0.00 0.00 39 1007.5
20260509190020 17 291 20.9 35.4 0.00 0.00 0.00 43 1007.2
20260509184531 17 262 29.0 38.6 0.00 0.00 0.00 42 1007.1
20260509183018 17 306 19.3 37.0 0.00 0.00 0.00 43 1007.0
20260509181517 17 250 17.7 29.0 0.00 0.00 0.00 46 1007.0
20260509180015 16 284 12.9 32.2 0.00 0.00 0.00 47 1006.7
20260509174513 16 272 24.1 37.0 0.00 0.00 0.00 48 1006.7
20260509173010 16 279 22.5 37.0 0.00 0.00 0.00 48 1006.6
20260509171511 16 284 14.5 37.0 0.00 0.00 0.00 53 1006.7
20260509170007 15 266 25.7 38.6 0.00 0.00 0.00 54 1006.6
20260509164503 15 266 29.0 35.4 0.00 0.00 0.00 57 1006.4
20260509163001 15 242 24.1 38.6 0.00 0.00 0.00 57 1006.3
20260509161602 15 273 20.9 30.6 0.00 0.00 0.00 62 1006.2
20260509160059 14 259 25.7 37.0 0.00 0.00 0.00 62 1006.0
20260509154558 14 285 25.7 32.2 0.00 0.00 0.00 63 1005.8
20260509153058 13 270 20.9 35.4 0.00 0.00 0.00 65 1005.8
20260509151655 13 271 20.9 37.0 0.00 0.00 0.00 65 1005.7
20260509150056 13 248 25.7 37.0 0.00 0.00 0.00 64 1005.5
20260509144555 13 242 25.7 40.2 0.00 0.00 0.00 66 1005.7
20260509143055 13 253 22.5 38.6 0.00 0.00 0.00 65 1005.5
20260509141600 13 251 22.5 33.8 0.00 0.00 0.00 63 1005.2
20260509140059 13 266 16.1 35.4 0.00 0.00 0.00 61 1005.0
20260509134548 12 237 9.7 12.9 0.00 0.00 0.00 59 1005.2
20260509133047 12 246 0.0 6.4 0.00 0.00 0.00 57 1004.7
20260509131546 12 267 3.2 11.3 0.00 0.00 0.00 58 1004.9
20260509130048 11 277 8.0 16.1 0.00 0.00 0.00 57 1004.9
20260509124547 11 258 9.7 22.5 0.00 0.00 0.00 57 1004.9
20260509123051 11 244 11.3 24.1 0.00 0.00 0.00 56 1004.5
20260509121540 11 248 14.5 24.1 0.00 0.00 0.00 60 1004.6
20260509120138 10 220 14.5 22.5 0.00 0.00 0.00 58 1004.1
20260509114540 9 236 19.3 32.2 0.00 0.00 0.00 61 1004.1
20260509113042 8 239 6.4 17.7 0.00 0.00 0.00 57 1003.6
20260509111544 7 229 0.0 12.9 0.00 0.00 0.00 58 1002.4
20260509110032 7 224 0.0 11.3 0.00 0.00 0.00 59 1002.0
20260509104531 7 182 0.0 4.8 0.00 0.00 0.00 59 1002.1
20260509103029 7 204 0.0 0.0 0.00 0.00 0.00 57 1002.2
20260509101530 7 203 0.0 3.2 0.00 0.00 0.00 56 1002.3
20260509100024 8 199 0.0 12.9 0.00 0.00 0.00 53 1002.4
20260509094527 9 217 3.2 17.7 0.00 0.00 0.00 50 1002.7
20260509093022 8 196 0.0 12.9 0.00 0.00 0.00 52 1002.7
20260509091521 8 185 3.2 14.5 0.00 0.00 0.00 53 1002.7
20260509090019 8 198 0.0 6.4 0.00 0.00 0.00 52 1002.2
20260509084517 8 208 1.6 8.0 0.00 0.00 0.00 53 1002.5
20260509083015 8 224 0.0 3.2 0.00 0.00 0.00 52 1002.5
20260509081510 10 229 0.0 0.0 0.00 0.00 0.00 50 1002.8
20260509080010 10 229 0.0 4.8 0.00 0.00 0.00 49 1002.9
20260509074508 10 232 0.0 0.0 0.00 0.00 0.00 49 1002.8
20260509073008 10 232 0.0 3.2 0.00 0.00 0.00 51 1002.9
20260509071504 11 234 0.0 6.4 0.00 0.00 0.00 50 1003.0
20260509064554 12 239 4.8 9.7 0.00 0.00 0.00 57 1003.5
20260509063059 13 244 4.8 8.0 0.00 0.00 0.00 55 1003.6
20260509061605 13 244 4.8 9.7 0.00 0.00 0.00 51 1003.5
20260509060048 13 247 6.4 9.7 0.00 0.00 0.00 53 1003.6
20260509054555 13 251 4.8 8.0 0.00 0.00 0.00 50 1003.4
20260509053056 14 253 4.8 8.0 0.00 0.00 0.00 51 1003.5
20260509051547 15 261 8.0 12.9 0.00 0.00 0.00 46 1003.6
20260509050038 15 269 8.0 12.9 0.00 0.00 0.00 46 1003.7
20260509044544 15 260 6.4 11.3 0.00 0.00 0.00 46 1003.7
20260509043036 15 262 6.4 12.9 0.00 0.00 0.00 45 1003.5
20260509041536 15 261 8.0 12.9 0.00 0.00 0.00 45 1003.5
20260509040038 16 259 8.0 11.3 0.00 0.00 0.00 48 1003.5
20260509034537 16 274 8.0 11.3 0.00 0.00 0.00 47 1003.4
20260509033035 16 272 8.0 11.3 0.00 0.00 0.00 48 1003.3
20260509031534 16 272 8.0 12.9 0.00 0.00 0.00 45 1003.2
20260509030033 17 265 4.8 9.7 0.00 0.00 0.00 44 1003.0
20260509024535 17 263 4.8 9.7 0.00 0.00 0.00 43 1002.7
20260509023034 17 276 1.6 6.4 0.00 0.00 0.00 46 1002.5
20260509021532 17 277 0.0 0.0 0.00 0.00 0.00 45 1002.2
20260509020036 18 277 3.2 8.0 0.00 0.00 0.00 43 1002.0
20260509014534 18 275 8.0 16.1 0.00 0.00 0.00 40 1001.9